Regional Weather Roundup
Issued by NWS Newport/Morehead, NC

Current Version | Previous Version | Text Only | Print | Product List | Glossary Off
Versions: 1 2 3 4 5 6 7 8 9 10 11 12 13 14 15 16 17 18 19 20 21 22 23 24 25 26 27 28 29 30 31 32 33 34 35 36 37 38 39 40 41 42 43 44 45 46 47 48 49 50
000 ASUS42 KMHX 201513 RWRMHX WEATHER ROUNDUP FOR EASTERN NORTH CAROLINA NATIONAL WEATHER SERVICE NEWPORT/MOREHEAD CITY NC 1100 AM EDT WED SEP 20 2017 NOTE: "FAIR" INDICATES FEW OR NO CLOUDS BELOW 12,000 FEET WITH NO SIGNIFICANT WEATHER AND/OR OBSTRUCTIONS TO VISIBILITY NCZ015>017-031-032-045>047-102-103-201600- NORTH COAST CITY SKY/WX TMP DP RH WIND PRES REMARKS EDENTON SUNNY 81 67 61 CALM 29.99F ELIZABETH CITY SUNNY 81 69 67 NW12 29.98S KITTY HAWK MOSUNNY 74 66 74 W3 29.96F MANTEO SUNNY 76 66 71 NW10G16 29.98F $$ NCZ045>047-081-094-103-104-201600- CENTRAL COAST CITY SKY/WX TMP DP RH WIND PRES REMARKS FRISCO SUNNY 80 70 71 NW8 29.98F $$ NCZ095-097-098-100-101-201600- SOUTHERN COAST CITY SKY/WX TMP DP RH WIND PRES REMARKS BEAUFORT SUNNY 82 70 66 NW9 30.00F CEDAR ISLAND NOT AVBL JACKSONVILLE SUNNY 83 69 62 W9 30.01F PINEY ISLAND N/A N/A N/A N/A W9 29.99F WILMINGTON SUNNY 84 67 56 NW9 30.03S $$ NCZ011>013-027>030-043-044-078>080-089-090>093-098-201600- COASTAL PLAIN CITY SKY/WX TMP DP RH WIND PRES REMARKS AHOSKIE N/A 78 68 69 CALM 30.00F CLINTON SUNNY 82 69 65 W7 30.03F ELIZABETHTOWN NOT AVBL GOLDSBORO SUNNY 82 73 73 W8 30.01S GREENVILLE SUNNY 81 68 65 W6 30.03F HAVELOCK SUNNY 83 69 62 NW9 30.01F KENANSVILLE SUNNY 82 68 61 W9 30.03S KINSTON SUNNY 82 68 61 W8 30.02F NEW BERN SUNNY 83 69 62 W5 30.02F RICHLANDS SUNNY 84 69 60 VRB6 30.02F ROCKY MOUNT SUNNY 81 70 69 W7 30.01F WASHINGTON SUNNY 82 68 62 W8 30.01F WHITEVILLE SUNNY 81 69 67 W5 30.03F $$ AMZ130-135-150-152-154-156-158-170-250-252-270-ANZ085-086-088-633-658-670-201600- MARINE OBSERVATIONS STATION/POSITION TIME TEMP WIND PRES WAVE SWELL AIR SEA DIR/SP/G HT/PER HT/PER (UTC) (F) (DEG/KT/KT) (MB) (FT/S) (FT/S) CHESAPEAKE LIGHT NOT AVBL 64 E VA BEACH 1450 70 69 290/ 14/ 16 1013.6 10/11 8/11 DUCK 1448 76 74 300/ 9/ 11 1014.3 2 E DUCK 1430 75 N/A 6/10 3/11 OREGON INLET 1436 76 73 290/ 7/ 10 1014.7 13E OREGON INLT 1448 74 N/A 8/10 8/10 HATTERAS CG 1448 75 74 300/ 12/ 13 1015.4 DIAMOND BUOY 1450 76 74 290/ 12/ 14 1015.0 6/11 5/11 CAPE LOOKOUT 1500 79 280/ 9/ 10 1015.7 BEAUFORT LAB 1448 81 74 310/ 6/ 7 1015.3 30 SE NEW RVR IN 1408 79 300/ 8/ 12 1016.4 30 SE NEW RVR IN NOT AVBL 27 SE WRIGHTSVLE 1408 78 79 280/ 10/ 14 1016.5 5 SE WRIGHTSVLE 1408 78 78 310/ 10/ 14 1016.6 225 S CAPE HAT 1450 79 80 310/ 4/ 4 1017.2 9/11 8/11 41 SE CHARLESTON 1450 80 82 280/ 8/ 10 1017.2 3/12 3/12 $$

USA.gov is the U.S. government's official web portal to all federal, state and local government web resources and services.